Powrót do katalogu

FENGYUN 1C DEB

AktywnyPO
NORAD 31480·DEBRIS·🇨🇳 China

Wystrzelony May 10, 1999 z Taiyuan Satellite Launch Center

Loading…

Następne Przeloty (najbliższe 24 godziny)

TLE

ŚwieżeSource: Space-Track

Epoka: Sep 13, 2026, 23:37 UTC

1 31480U 99025BVU 26256.98428203  .00004333  00000-0  21260-2 0  9994
2 31480  98.3297  85.7838 0337339 174.8139 185.6665 13.92484922972230

Śledź FENGYUN 1C DEB w czasie rzeczywistym z AllMySat

Download on the App Store